DELTA 1 DEB, 10762

Orbit data source: Space-Track

DELTA 1 DEB, 10762 is space debris in LEO originally from a launch on Thu, 29 Jul 1976 UTC launched from the Air Force Western Test Range (AFWTR). Debris objects in space refer to the collection of defunct objects orbiting the Earth. Examples of debris include non-operational satellites, rocket bodies, and fragments generated from explosions, collisions, or faulty payload assembly.

Loading next visibility...
Identifier
10762, 1976-077BK
Orbit
LEO
Country
Flag of USUS
Related business
Manufacturer
Unknown
Mission
Spacecraft
Bus & Motor
Unknown
Mass
Unknown
Launch date (UTC)
1976-07-29 (50 years ago)
Launch vehicle
Unknown
Launch site
Air Force Western Test Range (AFWTR)
Object type
Payload
Rocket body
Debris
Shape & HBR
Unknown shape, 0.5 m
Radar Cross Section
Medium (>0.1 m² and <1 m²)

Expand to show TLE details & history
Last TLE update: 1 day ago

TLE from 1 day ago
0 DELTA 1 DEB
1 10762U 76077BK  26255.11687647 -.00001482  00000-0 -14295-1 0  9992
2 10762 102.6425 324.4387 0672679 179.1725 181.0569 11.70147238604877
Epoch: 2026-09-12T02:48Z
TLE epoch observation values (Epoch: 2026-09-12T02:48:18.127Z)
Latitude
0.00004°
Longitude
-68.76733°
Altitude
2,371.082 km
Speed
6.52 km/s
True Right ascension
21h 37m 45s
True Declination
0° 00' 00"
Sunlit
Object was in full shadow at epoch
Visualization orbit readout
Latitude
Unknown
Longitude
Unknown
Altitude
Unknown
Speed
Unknown
Apparent Right ascension
Unknown
Apparent Declination
Unknown
Sunlit
N/A
Visualization observer readout
Local Sidereal Time
20:48:59
Azimuth
Unknown
Elevation
Unknown
Doppler factor
Unknown
Orbital elements
Apogee altitude
2,366.178 km
Perigee altitude
1,263.902 km
Semi-major axis
8,193.177 km
Eccentricity
0.06727
Inclination
102.6425°
RAAN
324.4387°
Arg. of periapsis
179.1725°
True anomaly
180.92577°
Mean anomaly
181.0569°
Eccentric anomaly
180.99029°
Mean motion
2.92661 °/min
Orbital period
123.01 mins
BSTAR
-0.014295
Loading maneuver chart data...
Computing Atmospheric mass density...
Loading historical data...
Loading historical data...
Loading historical data...
Loading historical data...
Loading historical data...
Loading historical data...
Loading historical data...

Documentation

Showing up to 5 results
|